Flag Weather past 2 weeks in Almaty, Kazakhstan

Now
7 °F

Ice fog.


Feels Like: 7 °F
Forecast: 12 / 37 °F
Wind: No wind

Location: Almaty Airport

Current Time: Nov 29, 2014 at 3:05:58 AM

Latest Report: Nov 29, 2014 at 2:30 AM


Visibility: 1 mi

Pressure: 30.57 "Hg

Humidity: 85%

Dew point: 3 °F

Location of AlmatyLocation

Historic Weather in Almaty — Graph

°F

Almaty temperature yesterday

Maximum temperature yesterday: 23 °F (at 12:00 PM)
Minimum temperature yesterday: 12 °F (at 4:30 AM)
Average temperature yesterday: 17 °F

Past Weeks' High & Low Weather Summary

 TemperatureHumidityPressure
High52 °F (Nov 17, 3:00 PM)100% (Nov 23, 2:00 PM)30.60 "Hg (Nov 23, 2:00 PM)
Low5 °F (Nov 26, 7:30 AM)29% (Nov 15, 3:00 PM)29.68 "Hg (Nov 24, 6:30 AM)
Average30 °F78%30.26 "Hg
* Reported Nov 14 2:00 AM — Nov 29 2:00 AM, Almaty, Weather by CustomWeather, © 2014

Note: Actual official high and low records may vary slightly from our data, if they occured in-between our weather recording intervals... More about our weather records

Advertising

Almaty weather history for previous 24 hours

 ConditionsComfort  
Time TempWeatherWind HumidityBarometerVisibility
2:00 AM
Nov 29
7 °FIce fog.3 mph85%30.57 "Hg1 mi
1:30 AM10 °FIce fog.1 mph79%30.57 "Hg3 mi
1:00 AM12 °FPartly cloudy.No wind85%30.57 "HgN/A
12:30 AM12 °FPartly cloudy.No wind85%30.57 "HgN/A
12:00 AM14 °FMostly cloudy.No wind79%30.60 "HgN/A
11:30 PM
Nov 28
14 °FMostly cloudy.3 mph79%30.60 "HgN/A
11:00 PM16 °FMostly cloudy.3 mph73%30.60 "HgN/A
10:30 PM16 °FMostly cloudy.3 mph73%30.60 "HgN/A
10:00 PM16 °FMostly cloudy.1 mph73%30.60 "HgN/A
9:30 PM16 °FMostly cloudy.3 mph73%30.60 "HgN/A
9:00 PM16 °FMostly cloudy.1 mph73%30.60 "HgN/A
8:30 PM16 °FMostly cloudy.1 mph73%30.57 "HgN/A
8:00 PM16 °FMostly cloudy.3 mph73%30.57 "HgN/A
7:30 PM16 °FMostly cloudy.1 mph73%30.57 "HgN/A
7:00 PM16 °FMostly cloudy.6 mph73%30.54 "HgN/A
6:30 PM16 °FMostly cloudy.3 mph67%30.54 "HgN/A
6:00 PM18 °FMostly cloudy.3 mph68%30.54 "HgN/A
5:30 PM18 °FPassing clouds.6 mph68%30.51 "HgN/A
5:00 PM18 °FPassing clouds.6 mph58%30.51 "HgN/A
4:30 PM21 °FPassing clouds.1 mph58%30.51 "HgN/A
4:00 PM21 °FPartly sunny.1 mph38%30.48 "HgN/A
3:30 PM21 °FBroken clouds.1 mph42%30.48 "HgN/A
3:00 PM21 °FPartly sunny.1 mph42%30.48 "HgN/A
2:30 PM21 °FOvercast.3 mph45%30.45 "HgN/A
2:00 PM21 °FOvercast.3 mph35%30.45 "HgN/A
1:30 PM23 °FOvercast.6 mph50%30.45 "HgN/A
1:00 PM21 °FOvercast.3 mph49%30.45 "HgN/A
12:30 PM21 °FMostly cloudy.1 mph45%30.45 "HgN/A
12:00 PM23 °FMostly cloudy.1 mph42%30.45 "HgN/A
11:30 AM21 °FMore clouds than sun.No wind49%30.45 "HgN/A
11:00 AM21 °FOvercast.1 mph54%30.45 "Hg3 mi
10:30 AM19 °FMore clouds than sun.1 mph58%30.45 "Hg3 mi
10:00 AM18 °FMore clouds than sun.1 mph68%30.42 "Hg2 mi
9:30 AM16 °FOvercast.3 mph73%30.42 "Hg3 mi
8:30 AM16 °FIce fog.1 mph79%30.39 "Hg1 mi
8:00 AM16 °FIce fog.1 mph73%30.39 "Hg2 mi
7:30 AM16 °FIce fog.1 mph73%30.39 "Hg3 mi
7:00 AM14 °FPartly sunny.No wind67%30.36 "HgN/A
6:30 AM14 °FPassing clouds.3 mph73%30.36 "HgN/A
6:00 AM14 °FPassing clouds.3 mph67%30.36 "HgN/A
5:30 AM14 °FPassing clouds.3 mph67%30.36 "HgN/A
5:00 AM12 °FPassing clouds.3 mph79%30.33 "HgN/A
4:30 AM12 °FPassing clouds.3 mph79%30.33 "HgN/A
4:00 AM14 °FPassing clouds.6 mph73%30.33 "HgN/A
3:30 AM16 °FIce fog.3 mph86%30.30 "Hg2 mi
3:00 AM16 °FIce fog.1 mph86%30.30 "Hg2 mi
Weather by CustomWeather, © 2014

See weather overviewHow to use our weather pages